Regional Weather Roundup
Issued by NWS Portland, ME

Current Version | Previous Version | Text Only | Print | Product List | Glossary Off
Versions: 1 2 3 4 5 6 7 8 9 10 11 12 13 14 15 16 17 18 19 20 21 22 23 24 25 26 27 28 29 30 31 32 33 34 35 36 37 38 39 40 41 42 43 44 45 46 47 48 49 50
000 ASUS41 KGYX 280410 RWRGYX WEATHER ROUNDUP FOR MAINE AND NEW HAMPSHIRE NATIONAL WEATHER SERVICE GRAY ME 1200 AM EDT TUE MAR 28 2017 MEZ002-005-006-010-012-015-018-020-021-024-026-027-029-280500- MAINE CITY SKY/WX TMP DP RH WIND PRES REMARKS PORTLAND CLOUDY 33 31 92 N9 30.04S SANFORD CLOUDY 33 32 96 N7 30.04R BAR HARBOR CLOUDY N/A N/A N/A NE9 30.03F WISCASSET CLOUDY 33 32 96 VRB3 30.04F FOG ROCKLAND CLOUDY 33 32 96 N13 30.01F FOG FRYEBURG CLOUDY 33 32 96 CALM 30.03S LEWISTONAUBURN CLOUDY 32 31 96 N8 30.04R FOG AUGUSTA CLOUDY 30 28 92 N7 30.04F FOG WATERVILLE LGT SNOW 30 29 96 N9 30.01F FOG BANGOR CLOUDY 30 29 96 N7 30.05F GREENVILLE N/A 25 25 100 SE5 29.98F MILLINOCKET CLOUDY 28 27 96 NE3 30.08F HOULTON LGT SNOW 26 25 96 VRB3 30.07F FOG PRESQUE ISLE LGT SNOW 26 24 92 E3 30.10F FOG FRENCHVILLE LGT SNOW 23 19 85 E9 30.06F FOG CARIBOU LGT SNOW 25 22 88 E7 30.08F FOG $$ NHZ002-005-008-009-011-012-014-280500- NEW HAMPSHIRE CITY SKY/WX TMP DP RH WIND PRES REMARKS PORTSMOUTH CLOUDY 34 32 92 NW5 30.03S ROCHESTER CLOUDY 34 31 88 N3 30.02R NASHUA CLOUDY 36 36 100 CALM 30.04S MANCHESTER CLOUDY 36 33 89 N5 30.02S CONCORD CLOUDY 34 32 92 SW3 30.04R LACONIA CLOUDY 33 31 92 NE5 30.02F PLYMOUTH CLOUDY 33 33 99 CALM 30.01S FOG BERLIN LGT RAIN 33 30 88 CALM 29.98S WHITEFIELD CLOUDY 34 30 85 CALM 29.97F JAFFREY FOG 34 34 100 CALM 30.00F VSB 3/4 KEENE CLOUDY 35 34 96 CALM 30.02F LEBANON CLOUDY 35 34 96 CALM 30.00S MT WASHINGTON FOG 34 34 100 W39 N/A VSB 1/16WCI 18 $$ VTZ005-007-008-280500- VERMONT CITY SKY/WX TMP DP RH WIND PRES REMARKS ST JOHNSBURY N/A 35 35 100 MISG 29.96F MONTPELIER CLOUDY 35 34 96 S5 29.98F BURLINGTON CLOUDY 38 36 92 E5 29.94F $$ MAZ007-012-024-CTZ003-RIZ002-NYZ038-NYZ072-280500- SOUTHERN NEW ENGLAND AND NY CITY SKY/WX TMP DP RH WIND PRES REMARKS BOSTON CLOUDY 37 37 100 N5 30.04S WORCESTER FOG 35 34 96 VRB3 30.00S VSB 1/4 NANTUCKET FOG 39 38 96 N13 30.01R VSB 1 PROVIDENCE CLOUDY 41 38 89 N8 30.03R HARTFORD CLOUDY 39 38 96 SW3 30.03S ALBANY CLOUDY 44 39 82 S5 29.98F NEW YORK CITY CLOUDY 44 41 89 E3 30.01S $$ ANZ081-ANZ082-ANZ150-NHZ014-MEZ023>029-280500- COASTAL MARINE OBSERVATIONS STATION/POSITION TIME TEMP WIND PRES WAVE AIR SEA DIR/SP/G HT/PER (UTC) (F) (DEG/KT/KT) (MB) (FT/S) MOUNT DESERT ROC 0400 37 1014.6F MATINICUS ROCK 0300 36 40/ 23/ 25 1014.5F ISLE OF SHOALS 0300 35 350/ 14/ 15 1016.9S JEFFREYS LEDGE 0306 42 N/A 5/ 7 CASHES LEDGE BUO 0250 39 40 1014.0 6/ 7 GEORGES BANK BUO 0250 46 40 1015.3 6/ 7 $$ .............KEY.............. WCI - WIND CHILL TC - TEMPERATURE IN CELSIUS VSB - VISIBILITY IN MILES HX - HEAT INDEX FAIR- INDICATES FEW OR NO CLOUDS BELOW 12,000 FT, WITH NO SIGNIFICANT WEATHER AND/OR OBSTRUCTIONS TO VISIBILITY.

USA.gov is the U.S. government's official web portal to all federal, state and local government web resources and services.